LSI377 EBLG-LIMC

Flight info

Callsign LSI377
Flight time 1h 0m
Altitude 31000
Route LNO N852 SUTAL DCT GTQ DCT DEVDI DCT BASGO Z424 RIXUV
Aircraft B77L/H-SDE1E2E3FGHIJ2J3J4J5M1RWXY/LB1D1

Departure

Time 2026-05-06 13:43
Airport Liège Airport (EBLG)

Arrival

Time 2026-05-06 14:43
Airport Milan Malpensa International Airport (LIMC)
Time Latitude Longitude Altitude Speed Heading
2026-05-06 12:51 50.64024 5.45439 620 ft 0 kts 135°
2026-05-06 13:34 50.64024 5.45438 620 ft 1 kts 135°
2026-05-06 13:34 50.64042 5.45411 611 ft 4 kts 135°
2026-05-06 13:35 50.64062 5.45381 635 ft 4 kts 136°
2026-05-06 13:35 50.64077 5.45359 633 ft 4 kts 157°
2026-05-06 13:35 50.64101 5.45356 633 ft 4 kts 205°
2026-05-06 13:35 50.64121 5.45377 633 ft 2 kts 225°
2026-05-06 13:36 50.64122 5.45378 633 ft 1 kts 225°
2026-05-06 13:38 50.64117 5.45371 633 ft 2 kts 225°
2026-05-06 13:38 50.64096 5.45337 633 ft 6 kts 225°
2026-05-06 13:38 50.64055 5.45273 633 ft 10 kts 225°
2026-05-06 13:38 50.63997 5.45181 627 ft 13 kts 225°
2026-05-06 13:39 50.63936 5.45082 633 ft 13 kts 225°
2026-05-06 13:39 50.63874 5.44985 633 ft 13 kts 225°
2026-05-06 13:39 50.63812 5.44886 630 ft 13 kts 225°
2026-05-06 13:39 50.63750 5.44788 634 ft 13 kts 224°
2026-05-06 13:40 50.63682 5.44682 630 ft 15 kts 225°
2026-05-06 13:40 50.63601 5.44553 628 ft 18 kts 225°
2026-05-06 13:40 50.63508 5.44404 637 ft 19 kts 225°
2026-05-06 13:40 50.63412 5.44254 642 ft 19 kts 225°
2026-05-06 13:41 50.63317 5.44105 648 ft 20 kts 225°
2026-05-06 13:41 50.63230 5.43967 645 ft 11 kts 225°
2026-05-06 13:41 50.63204 5.43847 649 ft 13 kts 296°
2026-05-06 13:41 50.63281 5.43847 649 ft 13 kts 20°
2026-05-06 13:42 50.63374 5.43901 648 ft 16 kts 20°
2026-05-06 13:42 50.63508 5.44040 641 ft 37 kts 45°
2026-05-06 13:42 50.63856 5.44589 630 ft 105 kts 45°
2026-05-06 13:42 50.64517 5.45641 629 ft 160 kts 45°
2026-05-06 13:43 50.65338 5.46940 960 ft 173 kts 43°
2026-05-06 13:43 50.66200 5.48268 1685 ft 169 kts 42°
2026-05-06 13:43 50.67024 5.49578 2331 ft 170 kts 42°
2026-05-06 13:43 50.67913 5.50996 2594 ft 194 kts 43°
2026-05-06 13:44 50.68637 5.52849 2727 ft 222 kts 77°
2026-05-06 13:44 50.68409 5.55392 2970 ft 255 kts 116°
2026-05-06 13:44 50.67243 5.57540 3488 ft 268 kts 135°
2026-05-06 13:44 50.65853 5.59558 4168 ft 274 kts 134°
2026-05-06 13:45 50.64457 5.61676 5031 ft 276 kts 133°
2026-05-06 13:45 50.61735 5.65972 6541 ft 284 kts 132°
2026-05-06 13:45 50.60344 5.68198 7281 ft 287 kts 132°
2026-05-06 13:46 50.58933 5.70421 7999 ft 289 kts 137°
2026-05-06 13:46 50.57187 5.72047 8524 ft 296 kts 159°
2026-05-06 13:46 50.55220 5.73131 9138 ft 302 kts 160°
2026-05-06 13:46 50.53232 5.74244 9915 ft 304 kts 160°
2026-05-06 13:47 50.51218 5.75389 10453 ft 315 kts 160°
2026-05-06 13:47 50.49074 5.76619 10656 ft 340 kts 161°
2026-05-06 13:47 50.46779 5.77943 10846 ft 364 kts 161°
2026-05-06 13:47 50.44336 5.79359 11292 ft 380 kts 161°
2026-05-06 13:48 50.41833 5.80816 12133 ft 387 kts 161°
2026-05-06 13:48 50.39331 5.82275 13113 ft 390 kts 161°
2026-05-06 13:48 50.36785 5.83761 14056 ft 393 kts 162°
2026-05-06 13:48 50.34203 5.85266 14902 ft 397 kts 161°
2026-05-06 13:49 50.31606 5.86778 15676 ft 402 kts 161°
2026-05-06 13:49 50.28962 5.88315 16430 ft 407 kts 161°
2026-05-06 13:49 50.26294 5.89865 17197 ft 411 kts 161°
2026-05-06 13:49 50.23599 5.91429 18093 ft 412 kts 162°
2026-05-06 13:50 50.20904 5.92990 18825 ft 415 kts 162°
2026-05-06 13:50 50.18182 5.94565 19508 ft 419 kts 162°
2026-05-06 13:50 50.15434 5.96153 20173 ft 423 kts 161°
2026-05-06 13:50 50.12670 5.97750 20868 ft 426 kts 162°
2026-05-06 13:51 50.09875 5.99361 21555 ft 429 kts 162°
2026-05-06 13:51 50.07063 6.00979 22200 ft 433 kts 161°
2026-05-06 13:51 50.04226 6.02612 22847 ft 437 kts 161°
2026-05-06 13:51 50.01362 6.04261 23491 ft 440 kts 162°
2026-05-06 13:52 49.98480 6.05918 24037 ft 443 kts 162°
2026-05-06 13:52 49.95581 6.07581 24599 ft 446 kts 162°
2026-05-06 13:52 49.92665 6.09250 25163 ft 449 kts 162°
2026-05-06 13:52 49.89761 6.10909 25675 ft 452 kts 162°
2026-05-06 13:53 49.86805 6.12596 26190 ft 455 kts 161°
2026-05-06 13:53 49.83863 6.14457 26704 ft 459 kts 158°
2026-05-06 13:53 49.80934 6.16464 27205 ft 462 kts 158°
2026-05-06 13:53 49.77989 6.18491 27746 ft 464 kts 158°
2026-05-06 13:54 49.75031 6.20518 28334 ft 465 kts 158°
2026-05-06 13:54 49.72064 6.22539 28901 ft 466 kts 158°
2026-05-06 13:54 49.69108 6.24544 29580 ft 463 kts 158°
2026-05-06 13:54 49.66163 6.26536 30258 ft 460 kts 158°
2026-05-06 13:55 49.63234 6.28512 30793 ft 459 kts 158°
2026-05-06 13:55 49.60281 6.30456 30811 ft 463 kts 159°
2026-05-06 13:55 49.54427 6.34218 30824 ft 449 kts 159°
2026-05-06 13:56 49.48655 6.37935 30831 ft 451 kts 159°
2026-05-06 13:56 49.42864 6.41744 30823 ft 454 kts 158°
2026-05-06 13:57 49.37088 6.45690 30816 ft 455 kts 157°
2026-05-06 13:57 49.31341 6.49609 30804 ft 455 kts 157°
2026-05-06 13:58 49.25538 6.53535 30807 ft 455 kts 157°
2026-05-06 13:58 49.19761 6.57426 30813 ft 454 kts 157°
2026-05-06 13:59 49.13989 6.61303 30812 ft 453 kts 157°
2026-05-06 13:59 49.08227 6.65166 30809 ft 452 kts 157°
2026-05-06 14:00 49.02487 6.69006 30822 ft 452 kts 157°
2026-05-06 14:00 48.96708 6.72869 30814 ft 452 kts 157°
2026-05-06 14:01 48.90963 6.76790 30812 ft 453 kts 156°
2026-05-06 14:01 48.85254 6.80702 30818 ft 453 kts 156°
2026-05-06 14:02 48.79499 6.84629 30809 ft 453 kts 157°
2026-05-06 14:02 48.73737 6.88542 30807 ft 453 kts 157°
2026-05-06 14:03 48.67990 6.92433 30812 ft 453 kts 157°
2026-05-06 14:03 48.62235 6.96320 30792 ft 452 kts 157°
2026-05-06 14:04 48.56489 7.00192 30805 ft 451 kts 157°
2026-05-06 14:04 48.50767 7.04037 30811 ft 450 kts 158°
2026-05-06 14:05 48.45092 7.07842 30817 ft 449 kts 158°
2026-05-06 14:05 48.39393 7.11655 30825 ft 448 kts 158°
2026-05-06 14:06 48.33697 7.15453 30829 ft 446 kts 158°
2026-05-06 14:06 48.28021 7.19230 30824 ft 446 kts 158°
2026-05-06 14:07 48.22355 7.22992 30819 ft 445 kts 158°
2026-05-06 14:07 48.16702 7.26736 30833 ft 444 kts 157°
2026-05-06 14:08 48.11046 7.30475 30826 ft 445 kts 158°
2026-05-06 14:08 48.05378 7.34210 30831 ft 445 kts 158°
2026-05-06 14:09 47.99743 7.37914 30832 ft 445 kts 158°
2026-05-06 14:09 47.94066 7.41639 30827 ft 446 kts 158°
2026-05-06 14:10 47.88374 7.45364 30838 ft 446 kts 158°
2026-05-06 14:10 47.82695 7.49073 30841 ft 446 kts 158°
2026-05-06 14:11 47.76998 7.52784 30876 ft 447 kts 158°
2026-05-06 14:11 47.71301 7.56485 30881 ft 448 kts 158°
2026-05-06 14:12 47.65626 7.60161 30882 ft 448 kts 160°
2026-05-06 14:12 47.59936 7.63837 30887 ft 448 kts 160°
2026-05-06 14:13 47.54187 7.67543 30874 ft 448 kts 160°
2026-05-06 14:13 47.48473 7.71221 30879 ft 448 kts 161°
2026-05-06 14:14 47.42792 7.74867 30876 ft 448 kts 161°
2026-05-06 14:14 47.37067 7.78534 30870 ft 448 kts 161°
2026-05-06 14:15 47.31348 7.82185 30858 ft 449 kts 161°
2026-05-06 14:15 47.25605 7.85847 30873 ft 449 kts 161°
2026-05-06 14:16 47.19856 7.89503 30869 ft 450 kts 161°
2026-05-06 14:16 47.15082 7.92533 30879 ft 450 kts 161°
2026-05-06 14:17 47.09330 7.96175 30873 ft 450 kts 162°
2026-05-06 14:17 47.03582 7.99805 30883 ft 449 kts 162°
2026-05-06 14:18 46.97851 8.03416 30886 ft 449 kts 162°
2026-05-06 14:18 46.91188 8.07606 30882 ft 448 kts 162°
2026-05-06 14:19 46.86397 8.10612 30885 ft 446 kts 162°
2026-05-06 14:19 46.81436 8.13715 30879 ft 444 kts 162°
2026-05-06 14:20 46.75805 8.17233 30882 ft 441 kts 163°
2026-05-06 14:20 46.70177 8.20742 30870 ft 433 kts 163°
2026-05-06 14:21 46.67421 8.22460 30522 ft 430 kts 163°
2026-05-06 14:21 46.64678 8.24165 30025 ft 426 kts 163°
2026-05-06 14:21 46.61958 8.25855 29447 ft 422 kts 163°
2026-05-06 14:21 46.59276 8.27516 28875 ft 417 kts 163°
2026-05-06 14:22 46.56623 8.29160 28349 ft 412 kts 163°
2026-05-06 14:22 46.53992 8.30786 27818 ft 408 kts 163°
2026-05-06 14:22 46.51394 8.32391 27329 ft 404 kts 162°
2026-05-06 14:22 46.48816 8.33980 26785 ft 401 kts 162°
2026-05-06 14:23 46.46262 8.35558 26288 ft 397 kts 162°
2026-05-06 14:23 46.43729 8.37117 25767 ft 394 kts 162°
2026-05-06 14:23 46.41223 8.38659 25269 ft 389 kts 162°
2026-05-06 14:23 46.38772 8.40167 24822 ft 386 kts 161°
2026-05-06 14:24 46.36307 8.41680 24337 ft 384 kts 161°
2026-05-06 14:24 46.33845 8.43189 23864 ft 382 kts 161°
2026-05-06 14:24 46.31402 8.44685 23333 ft 381 kts 162°
2026-05-06 14:24 46.28952 8.46090 22786 ft 375 kts 166°
2026-05-06 14:25 46.26453 8.47081 22303 ft 369 kts 171°
2026-05-06 14:25 46.23950 8.47737 21833 ft 363 kts 177°
2026-05-06 14:25 46.21447 8.48092 21384 ft 359 kts 178°
2026-05-06 14:25 46.18979 8.48435 20874 ft 356 kts 177°
2026-05-06 14:26 46.16528 8.48791 20485 ft 351 kts 177°
2026-05-06 14:26 46.14102 8.49143 20017 ft 350 kts 177°
2026-05-06 14:26 46.11721 8.49629 19568 ft 351 kts 171°
2026-05-06 14:26 46.09355 8.50488 19139 ft 350 kts 166°
2026-05-06 14:27 46.07067 8.51672 18688 ft 349 kts 162°
2026-05-06 14:27 46.04770 8.52929 18248 ft 347 kts 162°
2026-05-06 14:27 46.02549 8.54140 17752 ft 346 kts 162°
2026-05-06 14:27 46.00307 8.55354 17294 ft 343 kts 162°
2026-05-06 14:28 45.98077 8.56555 16815 ft 341 kts 162°
2026-05-06 14:28 45.95858 8.57752 16407 ft 338 kts 162°
2026-05-06 14:28 45.93660 8.58932 15967 ft 336 kts 162°
2026-05-06 14:28 45.91476 8.60102 15534 ft 334 kts 162°
2026-05-06 14:29 45.89346 8.61420 15086 ft 332 kts 151°
2026-05-06 14:29 45.87504 8.63442 14703 ft 334 kts 142°
2026-05-06 14:29 45.85719 8.65613 14268 ft 339 kts 143°
2026-05-06 14:29 45.83879 8.67797 13854 ft 348 kts 143°
2026-05-06 14:30 45.81989 8.70004 13369 ft 352 kts 144°
2026-05-06 14:30 45.80079 8.72212 12881 ft 352 kts 144°
2026-05-06 14:30 45.78180 8.74396 12427 ft 348 kts 144°
2026-05-06 14:30 45.76291 8.76544 11983 ft 343 kts 147°
2026-05-06 14:31 45.74318 8.78301 11692 ft 333 kts 155°
2026-05-06 14:31 45.72330 8.79762 11548 ft 321 kts 156°
2026-05-06 14:31 45.70372 8.81168 11409 ft 310 kts 156°
2026-05-06 14:31 45.68495 8.82550 11279 ft 299 kts 155°
2026-05-06 14:32 45.66691 8.83914 11163 ft 288 kts 155°
2026-05-06 14:32 45.64963 8.85234 11020 ft 276 kts 155°
2026-05-06 14:32 45.63302 8.86508 10917 ft 265 kts 155°
2026-05-06 14:32 45.61708 8.87689 10748 ft 251 kts 162°
2026-05-06 14:33 45.60064 8.88314 10536 ft 246 kts 173°
2026-05-06 14:33 45.58334 8.88726 10254 ft 257 kts 174°
2026-05-06 14:33 45.56553 8.89155 9956 ft 261 kts 173°
2026-05-06 14:33 45.54765 8.89615 9626 ft 260 kts 172°
2026-05-06 14:34 45.53019 8.90079 9294 ft 256 kts 172°
2026-05-06 14:34 45.51279 8.90548 8970 ft 253 kts 172°
2026-05-06 14:34 45.49534 8.91020 8565 ft 252 kts 172°
2026-05-06 14:34 45.47814 8.91486 8141 ft 252 kts 172°
2026-05-06 14:35 45.46108 8.91949 7706 ft 253 kts 171°
2026-05-06 14:35 45.44374 8.92421 7260 ft 254 kts 171°
2026-05-06 14:35 45.42638 8.92892 6816 ft 255 kts 171°
2026-05-06 14:35 45.40891 8.93365 6401 ft 256 kts 171°
2026-05-06 14:36 45.39146 8.93838 6006 ft 254 kts 171°
2026-05-06 14:36 45.37448 8.94118 5866 ft 234 kts 187°
2026-05-06 14:36 45.36002 8.93326 5843 ft 223 kts 219°
2026-05-06 14:36 45.35097 8.91494 5798 ft 237 kts 249°
2026-05-06 14:37 45.34960 8.89119 5400 ft 246 kts 281°
2026-05-06 14:37 45.35713 8.86972 5119 ft 244 kts 311°
2026-05-06 14:37 45.36969 8.85422 4922 ft 235 kts 320°
2026-05-06 14:37 45.38240 8.84027 4694 ft 225 kts 320°
2026-05-06 14:38 45.39448 8.82711 4546 ft 212 kts 320°
2026-05-06 14:38 45.40587 8.81482 4366 ft 201 kts 320°
2026-05-06 14:38 45.41687 8.80300 4199 ft 201 kts 320°
2026-05-06 14:38 45.42832 8.79170 3988 ft 200 kts 334°
2026-05-06 14:39 45.44164 8.78624 3780 ft 198 kts 346°
2026-05-06 14:39 45.45509 8.78195 3620 ft 198 kts 347°
2026-05-06 14:39 45.46830 8.77814 3457 ft 186 kts 348°
2026-05-06 14:39 45.48058 8.77472 3285 ft 175 kts 349°
2026-05-06 14:40 45.49243 8.77148 3149 ft 173 kts 349°
2026-05-06 14:40 45.50421 8.76823 2973 ft 172 kts 349°
2026-05-06 14:40 45.51601 8.76498 2749 ft 173 kts 349°
2026-05-06 14:40 45.52772 8.76176 2519 ft 170 kts 349°
2026-05-06 14:41 45.53924 8.75859 2287 ft 167 kts 349°
2026-05-06 14:41 45.55027 8.75555 2052 ft 156 kts 350°
2026-05-06 14:41 45.56056 8.75271 1863 ft 151 kts 351°
2026-05-06 14:41 45.57090 8.74986 1667 ft 151 kts 351°
2026-05-06 14:42 45.58114 8.74703 1458 ft 150 kts 352°
2026-05-06 14:42 45.59131 8.74417 1234 ft 147 kts 351°
2026-05-06 14:42 45.60132 8.74138 1022 ft 146 kts 351°
2026-05-06 14:42 45.61136 8.73872 841 ft 148 kts 349°
2026-05-06 14:43 45.62149 8.73590 743 ft 140 kts 349°
2026-05-06 14:43 45.62918 8.73379 741 ft 87 kts 349°
2026-05-06 14:43 45.63362 8.73256 740 ft 36 kts 349°
2026-05-06 14:43 45.63592 8.73180 743 ft 32 kts 337°
2026-05-06 14:44 45.63757 8.73020 742 ft 17 kts 314°
2026-05-06 14:44 45.63827 8.72888 743 ft 17 kts 304°
2026-05-06 14:44 45.63894 8.72748 742 ft 17 kts 303°
2026-05-06 14:45 45.63940 8.72437 744 ft 17 kts 259°
2026-05-06 14:45 45.63920 8.72271 743 ft 17 kts 265°
2026-05-06 14:45 45.63913 8.72102 742 ft 17 kts 266°
2026-05-06 14:45 45.63903 8.71931 744 ft 17 kts 263°
2026-05-06 14:46 45.63820 8.71826 742 ft 17 kts 183°
2026-05-06 14:46 45.63700 8.71851 742 ft 17 kts 168°
2026-05-06 14:46 45.63581 8.71885 744 ft 17 kts 169°
2026-05-06 14:46 45.63463 8.71917 743 ft 17 kts 169°
2026-05-06 14:47 45.63344 8.71949 744 ft 17 kts 167°
2026-05-06 14:47 45.63225 8.71983 742 ft 17 kts 169°
2026-05-06 14:47 45.63105 8.72014 745 ft 17 kts 169°
2026-05-06 14:47 45.62987 8.72048 743 ft 17 kts 168°
2026-05-06 14:48 45.62867 8.72081 744 ft 17 kts 170°
2026-05-06 14:48 45.62748 8.72113 743 ft 17 kts 168°
2026-05-06 14:48 45.62629 8.72148 743 ft 17 kts 168°
2026-05-06 14:48 45.62510 8.72181 743 ft 17 kts 169°
2026-05-06 14:49 45.62391 8.72212 744 ft 17 kts 169°
2026-05-06 14:49 45.62273 8.72245 743 ft 17 kts 169°
2026-05-06 14:49 45.62153 8.72278 745 ft 17 kts 169°
2026-05-06 14:49 45.62034 8.72312 743 ft 17 kts 169°
2026-05-06 14:50 45.61916 8.72344 745 ft 17 kts 169°
2026-05-06 14:50 45.61853 8.72306 743 ft 9 kts 247°
2026-05-06 14:50 45.61848 8.72212 743 ft 11 kts 266°
2026-05-06 14:50 45.61831 8.72101 742 ft 12 kts 250°
2026-05-06 14:51 45.61751 8.72077 743 ft 13 kts 167°
2026-05-06 14:51 45.61655 8.72104 746 ft 15 kts 168°
2026-05-06 14:51 45.61586 8.72109 743 ft 7 kts 206°
2026-05-06 14:51 45.61570 8.72072 744 ft 3 kts 263°
2026-05-06 14:52 45.61567 8.72032 744 ft 5 kts 262°
2026-05-06 14:52 45.61596 8.71991 743 ft 0 kts 259°